TimeEST,TemperatureF,Dew PointF,Humidity,Sea Level PressureIn,VisibilityMPH,Wind Direction,Wind SpeedMPH,Gust SpeedMPH,PrecipitationIn,Events,Conditions,WindDirDegrees,DateUTC
12:15 AM,32.2,23.5,70,29.96,10.0,NW,9.2,-,N/A,,Overcast,310,2012-11-26 05:15:00
12:34 AM,32.0,22.8,69,29.97,10.0,NW,9.2,-,N/A,,Overcast,310,2012-11-26 05:34:00
12:54 AM,32.0,21.7,66,29.97,10.0,NW,9.2,-,N/A,,Overcast,320,2012-11-26 05:54:00
1:15 AM,32.0,20.7,63,29.98,10.0,NW,8.1,-,N/A,,Overcast,310,2012-11-26 06:15:00
1:34 AM,32.0,20.5,63,29.98,10.0,WNW,10.4,-,N/A,,Overcast,300,2012-11-26 06:34:00
1:54 AM,31.8,21.2,65,29.99,10.0,WNW,10.4,-,N/A,,Overcast,300,2012-11-26 06:54:00
2:15 AM,31.6,20.7,64,29.99,10.0,WNW,11.5,-,N/A,,Overcast,300,2012-11-26 07:15:00
2:34 AM,31.5,19.8,62,30.00,10.0,WNW,13.8,18.4,N/A,,Overcast,300,2012-11-26 07:34:00
2:54 AM,31.1,19.0,61,30.01,10.0,WNW,11.5,17.3,N/A,,Overcast,300,2012-11-26 07:54:00
3:15 AM,31.1,17.8,58,30.01,10.0,NW,8.1,-,N/A,,Overcast,310,2012-11-26 08:15:00
3:34 AM,30.7,18.9,61,30.02,10.0,NW,8.1,-,N/A,,Overcast,310,2012-11-26 08:34:00
3:54 AM,30.9,17.4,57,30.02,10.0,WNW,11.5,-,N/A,,Overcast,300,2012-11-26 08:54:00
4:15 AM,30.7,17.2,57,30.03,10.0,WNW,10.4,-,N/A,,Overcast,300,2012-11-26 09:15:00
4:34 AM,30.2,18.1,61,30.03,10.0,WNW,8.1,-,N/A,,Overcast,290,2012-11-26 09:34:00
4:54 AM,30.6,16.9,57,30.04,10.0,West,9.2,-,N/A,,Overcast,280,2012-11-26 09:54:00
5:14 AM,30.4,16.9,57,30.04,10.0,West,8.1,-,N/A,,Overcast,280,2012-11-26 10:14:00
5:34 AM,30.2,17.6,60,30.05,10.0,WNW,8.1,-,N/A,,Overcast,300,2012-11-26 10:34:00
5:55 AM,30.2,17.8,60,30.06,10.0,WNW,9.2,-,N/A,,Overcast,300,2012-11-26 10:55:00
6:14 AM,30.0,18.3,62,30.07,10.0,WNW,8.1,-,N/A,,Overcast,290,2012-11-26 11:14:00
6:34 AM,29.8,17.8,61,30.07,10.0,WNW,5.8,-,N/A,,Overcast,290,2012-11-26 11:34:00
6:55 AM,29.8,17.1,59,30.08,10.0,West,4.6,-,N/A,,Overcast,280,2012-11-26 11:55:00
7:14 AM,29.8,17.1,59,30.08,10.0,West,4.6,-,N/A,,Overcast,280,2012-11-26 12:14:00
7:34 AM,29.7,16.9,59,30.09,10.0,WNW,5.8,-,N/A,,Overcast,290,2012-11-26 12:34:00
7:55 AM,29.8,16.3,57,30.10,10.0,West,5.8,-,N/A,,Overcast,280,2012-11-26 12:55:00
8:14 AM,29.8,16.2,57,30.10,10.0,WNW,4.6,-,N/A,,Overcast,290,2012-11-26 13:14:00
8:34 AM,29.8,16.0,56,30.11,10.0,West,3.5,-,N/A,,Overcast,280,2012-11-26 13:34:00
8:54 AM,30.2,16.2,56,30.11,10.0,West,3.5,-,N/A,,Overcast,280,2012-11-26 13:54:00
9:14 AM,30.2,16.5,57,30.12,10.0,West,4.6,-,N/A,,Overcast,270,2012-11-26 14:14:00
9:34 AM,30.2,16.7,57,30.14,10.0,West,4.6,-,N/A,,Overcast,260,2012-11-26 14:34:00
9:54 AM,30.7,16.5,56,30.14,10.0,West,4.6,-,N/A,,Overcast,270,2012-11-26 14:54:00
10:15 AM,30.9,16.5,55,30.15,10.0,West,5.8,-,N/A,,Overcast,280,2012-11-26 15:15:00
10:34 AM,31.1,16.3,54,30.15,10.0,West,3.5,-,N/A,,Overcast,280,2012-11-26 15:34:00
10:55 AM,31.6,16.7,54,30.16,10.0,WNW,6.9,-,N/A,,Overcast,290,2012-11-26 15:55:00
11:14 AM,31.1,18.0,58,30.17,10.0,WNW,9.2,-,N/A,,Overcast,300,2012-11-26 16:14:00
11:35 AM,30.9,17.8,58,30.16,10.0,WNW,9.2,-,N/A,,Overcast,300,2012-11-26 16:35:00
11:54 AM,30.9,18.1,59,30.16,10.0,NW,10.4,-,N/A,,Overcast,310,2012-11-26 16:54:00
12:15 PM,31.1,18.0,58,30.16,10.0,WNW,11.5,-,N/A,,Overcast,300,2012-11-26 17:15:00
12:34 PM,31.1,18.1,59,30.16,10.0,WNW,10.4,-,N/A,,Overcast,300,2012-11-26 17:34:00
12:54 PM,30.9,18.5,60,30.16,10.0,NW,8.1,-,N/A,Snow,Light Snow,320,2012-11-26 17:54:00
1:15 PM,31.5,18.3,58,30.15,10.0,WNW,10.4,-,N/A,,Overcast,300,2012-11-26 18:15:00
1:34 PM,31.1,17.8,58,30.16,10.0,WNW,10.4,-,N/A,,Overcast,300,2012-11-26 18:34:00
1:54 PM,31.1,17.8,58,30.17,10.0,WNW,12.7,-,N/A,,Overcast,300,2012-11-26 18:54:00
2:15 PM,31.1,16.5,55,30.17,10.0,West,11.5,17.3,N/A,,Overcast,270,2012-11-26 19:15:00
2:34 PM,31.1,18.0,58,30.16,10.0,WNW,9.2,-,N/A,,Overcast,290,2012-11-26 19:34:00
2:55 PM,31.1,17.4,57,30.16,10.0,WNW,10.4,-,N/A,,Overcast,290,2012-11-26 19:55:00
3:14 PM,30.9,17.2,57,30.17,10.0,West,6.9,-,N/A,,Overcast,280,2012-11-26 20:14:00
3:34 PM,30.9,17.8,58,30.17,10.0,WNW,9.2,-,N/A,,Overcast,290,2012-11-26 20:34:00
3:55 PM,30.6,18.0,60,30.17,10.0,WNW,11.5,-,N/A,,Overcast,290,2012-11-26 20:55:00
4:14 PM,30.2,18.5,62,30.17,10.0,WNW,10.4,-,N/A,,Overcast,300,2012-11-26 21:14:00
4:35 PM,30.2,19.2,64,30.18,10.0,WNW,8.1,-,N/A,,Overcast,300,2012-11-26 21:35:00
4:54 PM,30.0,19.4,65,30.19,10.0,WNW,6.9,-,N/A,,Overcast,290,2012-11-26 21:54:00
5:14 PM,30.0,19.0,64,30.19,10.0,WNW,8.1,-,N/A,,Overcast,290,2012-11-26 22:14:00
5:35 PM,29.8,18.5,63,30.20,10.0,West,8.1,-,N/A,,Overcast,280,2012-11-26 22:35:00
5:54 PM,29.7,17.6,61,30.21,10.0,WNW,8.1,-,N/A,,Overcast,290,2012-11-26 22:54:00
6:15 PM,29.3,16.2,58,30.21,10.0,WNW,8.1,-,N/A,,Overcast,290,2012-11-26 23:15:00
6:34 PM,29.3,16.2,58,30.21,10.0,West,4.6,-,N/A,,Overcast,280,2012-11-26 23:34:00
6:54 PM,29.3,16.7,59,30.22,10.0,West,4.6,-,N/A,,Overcast,280,2012-11-26 23:54:00
7:15 PM,29.3,17.8,62,30.22,10.0,WNW,6.9,-,N/A,,Overcast,300,2012-11-27 00:15:00
7:34 PM,29.3,18.1,63,30.23,10.0,WNW,8.1,-,N/A,,Overcast,300,2012-11-27 00:34:00
7:54 PM,28.9,18.7,66,30.23,10.0,NNW,9.2,-,N/A,,Overcast,330,2012-11-27 00:54:00
8:15 PM,28.6,18.5,66,30.24,10.0,NNW,6.9,-,N/A,,Overcast,330,2012-11-27 01:15:00
8:34 PM,28.4,17.8,64,30.25,10.0,NW,6.9,-,N/A,,Overcast,320,2012-11-27 01:34:00
8:54 PM,28.4,18.0,65,30.26,10.0,NW,9.2,-,N/A,,Overcast,310,2012-11-27 01:54:00
9:15 PM,28.2,18.1,66,30.26,10.0,NNW,11.5,-,N/A,,Overcast,340,2012-11-27 02:15:00
9:34 PM,27.5,16.7,64,30.27,10.0,NNW,11.5,16.1,N/A,,Overcast,340,2012-11-27 02:34:00
9:54 PM,27.5,16.0,62,30.28,10.0,NNW,6.9,-,N/A,,Overcast,330,2012-11-27 02:54:00
10:15 PM,27.1,15.1,60,30.28,10.0,NNW,4.6,-,N/A,,Overcast,340,2012-11-27 03:15:00
10:34 PM,27.1,15.3,61,30.28,10.0,WNW,3.5,-,N/A,,Overcast,300,2012-11-27 03:34:00
10:54 PM,27.0,15.8,63,30.27,10.0,WNW,4.6,-,N/A,,Overcast,290,2012-11-27 03:54:00
11:15 PM,26.6,16.3,65,30.27,10.0,WNW,4.6,-,N/A,,Overcast,290,2012-11-27 04:15:00
11:34 PM,26.6,16.5,66,30.27,10.0,WNW,4.6,-,N/A,,Overcast,290,2012-11-27 04:34:00
11:54 PM,27.0,15.3,61,30.27,10.0,Calm,Calm,-,N/A,,Overcast,0,2012-11-27 04:54:00